www.pogodaiklimat.ru

Погода и климат >> Архив погоды >> Китай >> Внутренняя Монголия >> Баян Мод


ПОГОДА в Баян Мод

  • Прогноз погоды в Баян Мод
  • Монитор погоды в Баян Мод

АРХИВ ПОГОДЫ в Баян Мод

Время (UTC), дата Ветер
(напр.,м/с)
 
Видим.   Явления Облачность Т
(С)
Тd
(С)
f
(%)
Тe
(С)
Тes
(С)
Комфортность P
(гПа)
Po
(гПа)
Тmin
(С)
Tmax
(С)
R
(мм)
R24
(мм)
S
(см)
18 18.05 СЗ 7 13 км ?/? +6.8 -11.9 25 +3 +3 1022.6 871.8 +15.7
21 18.05 СЗ 5 19 км н/о +3.3 -10.7 35 -1 -1 1024.7 869.5
00 19.05 С 3 30 км ясно +5.2 -7.0 41 +3 +6 1027.3 875.8
03 19.05 С 4 30 км ясно +9.3 -11.9 21 +7 +18 опасность
простуды
1027.3 874.7
06 19.05 С 2 30 км ясно +11.5 -18.0 11 +11 +30 опасность
простуды
1025.7 875.3 +3.1
09 19.05 Ю 2 30 км ясно +13.2 -19.0 9 +13 +21 1024.6 874.3
12 19.05 С 1 30 км ясно +12.2 -18.5 10 +13 +13 1024.0 873.6
15 19.05 Ю 1 30 км н/о +7.0 -14.4 20 +7 +7 1024.8 871.4
18 19.05 В 2 30 км ?/? +5.0 -15.5 21 +4 +4 1024.0 873.4 +13.7
21 19.05 Ю 1 30 км н/о +3.0 -14.6 26 +3 +3 1023.1 867.9
00 20.05 В 2 30 км ясно +8.4 -13.3 20 +8 +11 1021.8 872.5
03 20.05 Ю 3 30 км 3/3
[]
+16.4 -16.6 9 +16 +26 1019.9 871.8
06 20.05 Ю 3 30 км 9/9
[]
+19.4 -15.7 8 +19 +21 1017.0 869.3 +2.7
09 20.05 С 1 30 км 9/9
[]
+20.9 -14.6 8 +21 +22 комфорт 1015.0 869.7
12 20.05 С 2 25 км 9/9
[]
+19.6 -14.1 9 +20 +20 1013.9 867.5
15 20.05 З 2 30 км н/о +13.2 -12.1 16 +13 +13 1015.0 866.1
18 20.05 В 1 30 км ?/? +9.5 -10.1 24 +10 +10 1014.2 868.0 +21.4
21 20.05 В 1 20 км н/о +5.2 -8.6 36 +5 +5 1014.7 861.9
00 21.05 В 1 28 км 8/8
[]
+10.7 -8.5 25 +11 +12 1014.7 868.7
03 21.05 СЗ 2 30 км 3/3
[]
+22.5 -15.0 7 +20 +31 1012.7 868.5
06 21.05 С 5 30 км ясно +24.9 -15.1 6 +22 +32 комфорт 1011.5 866.9 +5.0
09 21.05 СЗ 4 30 км ясно +25.6 -19.5 4 +22 +27 комфорт 1010.6 868.1
12 21.05 СЗ 3 30 км ясно +24.2 -17.8 5 +21 +21 комфорт 1009.1 865.0
15 21.05 З 2 30 км н/о +15.8 -14.6 11 +16 +16 1009.4 862.6
18 21.05 В 1 30 км ?/? +11.3 -11.5 19 +12 +12 1009.2 865.4 +26.1
21 21.05 СВ 1 30 км н/о +9.0 -11.0 23 +9 +9 1009.2 859.1
00 22.05 В 1 30 км ясно +15.3 -7.5 20 +16 +21 1008.7 865.7
03 22.05 З 3 30 км ясно +26.8 -16.0 5 +23 +36 комфорт 1007.2 865.7
06 22.05 Ю 5 30 км ясно +29.1 -14.4 5 +25 +35 комфорт 1006.0 863.6 +7.6
09 22.05 Ю 4 30 км ясно +29.0 -17.1 4 +25 +30 комфорт 1004.0 863.9
12 22.05 Ю 3 30 км 4/4
[]
+26.2 -14.2 6 +23 +23 комфорт 1003.1 861.3
15 22.05 штиль 0 30 км н/о +18.3 -12.7 11 +18 +18 1003.4 858.6
18 22.05 В 2 30 км ?/? +15.5 -9.4 17 +16 +16 1003.0 861.9 +29.6
21 22.05 СВ 2 30 км н/о +13.5 -8.4 21 +13 +13 1002.5 855.6
00 23.05 В 3 30 км 9/9
[]
+21.9 -2.7 19 +21 +21 комфорт 1001.3 861.2
03 23.05 Ю 5 30 км 9/9
[]
+27.4 -0.6 16 +25 +26 комфорт 1001.7 861.2
06 23.05 Ю 5 30 км 9/9
[]
+30.0 -6.3 9 +26 +27 жарко 999.6 859.2 +13.3
09 23.05 Ю 4 30 км 9/9 2000 м
[]
+29.9 -6.4 9 +26 +27 жарко 998.6 859.6
12 23.05 З 2 30 км 9/9 2000 м
[]
+28.3 -4.9 11 +25 +25 комфорт 997.3 858.2
15 23.05 З 2 30 км н/о +23.9 -4.3 15 +22 +22 комфорт 997.8 856.3
18 23.05 З 2 30 км ?/? +19.2 -3.6 21 +20 +20 997.2 857.9 +31.0
21 23.05 штиль 0 30 км н/о +15.1 -3.3 28 +15 +15 998.2 852.7
00 24.05 В 1 30 км ясно +19.5 -1.0 25 +21 +25 комфорт 998.3 858.6
03 24.05 С 4 30 км ясно +29.8 -6.4 9 +26 +37 жарко 996.4 857.7
06 24.05 СВ 3 30 км ясно +32.1 -6.3 8 +28 +44 жарко 995.7 857.1 +14.2
09 24.05 С 5 17 км 8/8
[]
+31.7 -6.6 8 +28 +28 жарко 996.0 858.1
12 24.05 С 4 23 км 9/9
[]
+29.4 -5.4 10 +26 +26 жарко 996.1 856.9
15 24.05 С 8 6000 м мгла н/о +23.8 -4.4 15 +22 +22 комфорт 997.4 855.9
18 24.05 СЗ 9 10 км ?/? +19.2 -12.0 11 +18 +18 999.0 859.9 +32.7
21 24.05 СЗ 5 30 км н/о +16.4 -14.1 11 +16 +16 1000.8 855.5
00 25.05 С 5 30 км 9/9
[]
+18.5 -13.7 10 +18 +18 1001.9 861.7
03 25.05 С 6 30 км 9/9 2000 м
[]
+21.4 -7.2 14 +20 +21 1004.1 860.6
06 25.05 С 7 30 км 10/10
[]
+20.3 -2.7 21 +20 +20 1005.9 863.3 +15.6
09 25.05 СЗ 6 30 км 9/9 2000 м
[]
+20.3 -6.3 16 +20 +20 1007.0 862.6
12 25.05 З 6 30 км 3/3 2000 м
[]
+19.1 -0.8 26 +19 +19 1006.9 863.7
15 25.05 СЗ 8 7000 м ?/? +16.9 -11.7 13 +16 +16 1008.7 862.5

 

Местоположение метеостанции Баян Мод (Внутренняя Монголия, Китай): широта 40.75 долгота 104.50 высота над уровнем моря 1329 м.

В архиве по умолчанию представлена погода в Баян Мод за последнюю неделю. Архивные данные за месяц целиком и за предыдущие месяцы, начиная с января 2011 года, Вы можете получить, выбрав интересующий диапазон дат из раскрывающегося списка и нажав кнопку "Ввод!".


*Определитесь, кто Вы:
робот инопланетянин человек

Внимание! Время в таблицах - всемирное. Для получения местного времени необходимо прибавить поправку, которая равна 8 ч.

Смотрите также архив погоды в соседних городах и на ближайших метеорологических станциях:

Погода в Джартае (Внутренняя Монголия, Китай) (151 км)
Погода в Баинвендурьере (Внутренняя Монголия, Китай) (176 км)
Погода в Гуайцзыху (Внутренняя Монголия, Китай) (192 км)
Погода в Линьхэ (Внутренняя Монголия, Китай) (244 км)
Погода в Миньцине (Цинхай, Китай) (265 км)
Погода в Иньчуане (Нинся-Хуэйский автономный район, Китай) (292 км)
Погода в Даланзадгаде (Монголия) (315 км)
Погода в Эдзин-Ци (Внутренняя Монголия, Китай) (317 км)
Погода в Хэй Лю Чжэнь (Внутренняя Монголия, Китай) (348 км)
Погода в Отог-Ци (Внутренняя Монголия, Китай) (349 км)

Пояснения к столбцам:

Ветер - указаны скорость ветра в м/с - средняя за 10 мин, порывы в срок и между сроками (в фигурных скобках) и направление, откуда дует ветер: С - северный, СВ - северо-восточный, В - восточный, ЮВ - юго-восточный, Ю - южный, ЮЗ - юго-западный, З - западный, СЗ - северо-западный.
Видимость - горизонтальная дальность видимости в метрах или километрах. При видимости от 1 до 10 км при отсутствии осадков обычно наблюдается дымка, при ухудшении видимости до 1 км и менее - туман. В сухую погоду видимость может ухудшаться дымом, пылью или мглою.
Явления - указаны атмосферные явления, наблюдавшиеся в срок или в последний час перед сроком; фигурными скобками обозначены явления, наблюдавшиеся между сроками (за 1-3 часа до срока); квадратными скобками обозначены град или гололедные отложения с указанием их диаметра в мм.
Облачность - указаны через наклонную черту общая и нижняя облачность в баллах и высота нижней границы облаков в метрах; квадратными скобками обозначены формы облаков: Ci - перистые, Cs - перисто-слоистые, Cc - перисто-кучевые, Ac - высококучевые, As - высокослоистые, Sc - слоисто-кучевые, Ns - слоисто-дождевые, Cu - кучевые, Cb - кучево-дождевые. Подробнее классификацию облаков см. в Атласе облаков (PDF).
T - Температура воздуха - температура, измеренная на высоте 2 м над землей.
Td - Температура точки росы - температура, при понижении до которой содержащийся в воздухе водяной пар достигнет насыщения.
f - Относительная влажность воздуха - влажноcть воздуха, измеренная на высоте 2 м над землей.
Te - Эффективная температура - температура, которую ощущает одетый по сезону человек в тени. Характеристика душности погоды. При расчете учитывается влияние влажности воздуха и скорости ветра на теплоощущения человека.
Tes - Эффективная температура на солнце - температура, которую ощущает человек, с поправкой на солнечный нагрев. Характеристика знойности погоды. Зависит от высоты солнца над горизонтом, облачности и скорости ветра. Ночью, в пасмурную погоду, а также при ветре 12 м/с и более поправка равна нулю.
P - Атмосферное давление - приведенное к уровню моря атмосферное давление.
Po - Атмосферное давление - измеренное на уровне метеостанции атмосферное давление.
Tmin - Минимальная температура - минимум температуры воздуха на высоте 2 м над землей.
Tmax - Максимальная температура - максимум температуры воздуха на высоте 2 м над землей.
R - Количество осадков - Количество выпавших осадков за период времени, мм. При наведении курсора мыши на число - период времени, за который выпало указанное количество осадков.
R24 - Количество осадков - Количество выпавших осадков за 24 часа, мм.
S - Снежный покров - Высота снежного покрова, см. При наведении курсора мыши на число - состояние снежного покрова и степень покрытия местности в баллах.